Hourly Data Report for October 08, 2013

All times are specified in Local Standard Time (LST). Add 1 hour to adjust for Daylight Saving Time where and when it is observed.

SAINT JOHN A
NEW BRUNSWICK

45°18'58.000" N
65°53'24.000" W
108.80 m
8104901
71609
YSJ

Download Data

Hourly Data (October 2013)
Hourly Data Report for October 8, 2013
Temp Definition
°C
Dew Point Temp Definition
°C
Rel Hum Definition
%
Wind Dir Definition
10's deg

Wind Spd Definition
km/h
Visibility Definition
km
Stn Press Definition
kPa
Hmdx Definition


Wind Chill Definition


Weather Definition


TIME
00:00 Legend Double Dagger 17.7 17.1 96 18 37 9.7 100.01     Rain Showers,Fog
01:00 Legend Double Dagger 18.0 17.2 95 18 33 9.7 99.91     Rain Showers,Fog
02:00 Legend Double Dagger 18.1 17.3 95 18 39 9.7 99.81     Rain Showers,Fog
03:00 Legend Double Dagger 18.2 17.4 95 18 37 9.7 99.72     Fog
04:00 Legend Double Dagger 17.5 16.5 94 20 51 9.7 99.76     Fog
05:00 Legend Double Dagger 15.1 14.6 97 21 37 6.4 99.80     Rain,Fog
06:00 Legend Double Dagger 14.3 14.0 98 23 27 6.4 99.86     Rain,Fog
07:00 Legend Double Dagger 11.9 10.8 93 31 18 9.7 99.98     Rain,Fog
08:00 Legend Double Dagger 12.2 11.1 93 29 5 24.1 100.06     Cloudy
09:00 Legend Double Dagger 12.6 11.0 90 24 8 24.1 100.20     LegendNANA
10:00 Legend Double Dagger 14.4 10.5 77 27 21 24.1 100.27     LegendNANA
11:00 Legend Double Dagger 15.0 8.1 63 28 24 24.1 100.33     Mainly Clear
12:00 Legend Double Dagger 15.8 7.4 57 31 22 24.1 100.41     LegendNANA
13:00 Legend Double Dagger 16.1 6.1 51 32 22 24.1 100.45     LegendNANA
14:00 Legend Double Dagger 15.6 4.7 48 31 22 24.1 100.54     Mainly Clear
15:00 Legend Double Dagger 15.4 4.2 47 32 32 24.1 100.59     LegendNANA
16:00 Legend Double Dagger 14.7 3.3 46 32 26 24.1 100.71     LegendNANA
17:00 Legend Double Dagger 13.9 3.1 48 31 16 24.1 100.82     Mainly Clear
18:00 Legend Double Dagger 10.6 3.2 60 33 19 24.1 100.93     LegendNANA
19:00 Legend Double Dagger 9.2 3.4 67 31 9 24.1 101.04     LegendNANA
20:00 Legend Double Dagger 8.4 3.5 71 33 7 24.1 101.17     Clear
21:00 Legend Double Dagger 7.1 3.4 77 33 12 24.1 101.23     LegendNANA
22:00 Legend Double Dagger 5.1 2.3 82 19 4 24.1 101.31     LegendNANA
23:00 Legend Double Dagger 6.5 2.8 77 33 10 24.1 101.35     Clear

Notes on Data Quality.

Legend

  • E = Estimated
  • M = Missing
  • NA = Not Available
  • ‡ = Partner data that is not subject to review by the National Climate Archives
Date modified: